Вернуться в каталог

SL-12 DEB

АктивенHEO
NORAD 41641·DEBRIS·🇷🇺 Russia

Запущен Dec 25, 2008 с Baikonur Cosmodrome

Loading…

Ближайшие Пролёты (ближайшие 24 часа)

TLE

СвежийSource: Space-Track

Эпоха: Sep 8, 2026, 23:38 UTC

1 41641U 08067M   26251.98501555 -.00000102  00000-0 -16775-2 0  9994
2 41641  65.0779 105.7872 5544200 280.6968  24.3583  4.29359450158539

Отслеживайте SL-12 DEB в реальном времени с AllMySat

Download on the App Store